Simultaneous Nadir Overpasses (SNOs) Predictions

Prediction of SNOs between AQUA and METOP-B Satellite Orbit:

Table of predicted SNOs for the next 14.0 days since TLE Epoch: 9/3/2022
Index Date (AQUA) Time (AQUA) Lat,Lon (AQUA) SZA (AQUA ) Date (METOP-B) Time (METOP-B) Lat,Lon (METOP-B) SZA (METOP-B ) Distance(km) Time Diff (sec)
1 09/03/2022 19:14:17 -74.04, 66.21 113.33 09/03/2022 19:13:11 -74.01, 66.22 113.34 2.84 66
2 09/03/2022 20:03:45 74.10,-126.31 66.76 09/03/2022 20:03:49 74.12,-126.20 66.77 3.43 4
3 09/03/2022 20:53:15 -74.34, 40.77 112.98 09/03/2022 20:54:26 -74.33, 41.68 113.02 27.20 71
4 09/06/2022 14:47:50 -74.07, 132.76 112.25 09/06/2022 14:47:30 -74.08, 132.79 112.24 1.31 20
5 09/06/2022 15:37:18 74.14, -59.76 67.84 09/06/2022 15:38:09 74.13, -59.75 67.82 1.52 51
6 09/09/2022 09:31:56 74.04, 31.82 68.76 09/09/2022 09:31:09 74.06, 31.84 68.78 2.53 47
7 09/09/2022 10:21:23 -74.12,-160.72 111.15 09/09/2022 10:21:50 -74.09,-160.76 111.18 3.36 27
8 09/12/2022 04:16:00 -74.03, -69.17 110.21 09/12/2022 04:14:49 -74.03, -69.17 110.20 0.54 71
9 09/12/2022 05:05:28 74.11, 98.29 69.89 09/12/2022 05:05:27 74.12, 98.39 69.90 3.18 1
10 09/12/2022 05:54:54 -74.14, -94.12 110.07 09/12/2022 05:56:08 -74.15, -94.20 110.06 3.10 74
11 09/14/2022 23:49:32 -74.06, -2.60 109.11 09/14/2022 23:49:08 -74.08, -2.62 109.08 2.55 24
12 09/15/2022 00:39:00 74.14, 164.86 71.00 09/15/2022 00:39:47 74.12, 164.81 70.98 2.53 47



Historial Predications of SNOs between AQUA and METOP-B
